[vc_row][vc_column width=”2/3″]

Nesenie raksti

Ziņas

[/vc_column][vc_column width=”1/3″ el_class=”sticky-column”]

Par Gliding.lv

[vc_column_text]Gliding.lv ir interneta vietne par planieriem un planierismu. Šeit būs atrodama informācija par iespējām pamēģināt, iesaistīties un organizēt planierisma aktivitātes. Izmanto Gliding.lv forumu, ja Tev ir kāda tēma diskusijai vai jautājums. Gliding.lv merķis ir informēt un apvienot planierisma interesentus, nodrošinot un apmainoties ar aktuālāko un arī bijušo. Lidojam![/vc_column_text][vc_column_text]
[/vc_column_text]

METAR

EVRA 212020Z 17010KT 9999 OVC003 03/02 Q1007 NOSIG

EVLA 212020Z AUTO 22009KT 2100 BR VV002 03/03 Q1006

EVVA 212020Z AUTO 19010KT 3700 BR OVC002 03/03 Q1005

Nesenie raksti

[/vc_column][/vc_row]

Pāriet uz rīkjoslu